Location: GMARS
(34.2910°N, 116.3838°W)
Time: 14:03:51
(UTC-07:00)

Envisat - Visible Passes

Search period start: 21 April 2019 00:00
Search period end: 01 May 2019 00:00
Orbit: 764 x 766 km, 98.2° (Epoch: 21 April)

Date Brightness Start Highest point End Pass type
(mag) Time Alt. Az. Time Alt. Az. Time Alt. Az.
21 Apr 3.9 19:44:11 10° S 19:49:08 54° W 19:54:07 10° NNW visible
22 Apr 6.0 20:49:57 10° WSW 20:51:47 12° W 20:53:37 10° WNW visible
23 Apr 5.0 20:10:23 10° SSW 20:14:45 29° W 20:19:09 10° NW visible
25 Apr 5.8 20:37:27 10° SW 20:40:28 16° W 20:43:28 10° NW visible
26 Apr 4.6 19:58:48 10° SSW 20:03:29 37° W 20:08:11 10° NNW visible
28 Apr 5.6 20:25:26 10° SW 20:29:09 20° W 20:32:53 10° NW visible
29 Apr 4.1 19:47:20 10° S 19:52:13 49° W 19:57:08 10° NNW visible
30 Apr 6.1 20:54:00 10° W 20:54:54 10° W 20:55:49 10° W visible
